• In Austria
  • List of Countries
  • For 7 days
  • Water Temperature
  • Satellite Maps
  • Weather Map
  • News
  • Weather Widgets
  • user-avatar
    Login

    Hourly Weather Nakhchivan

    Today, 27 May, Sunday

    Time Temperature Precipitation Wind Pressure Humidity
    00:00 +22°C° 0 mm 1 mps 688 mmHg 46%
    01:00 +22°C° 0 mm 1 mps 688 mmHg 47%
    02:00 +21°C° 0 mm 1 mps 688 mmHg 47%
    03:00 +21°C° 0 mm 1 mps 688 mmHg 48%
    04:00 +22°C° 0 mm 1 mps 688 mmHg 46%
    05:00 +22°C° 0 mm 1 mps 689 mmHg 45%
    06:00 +23°C° 0 mm 1 mps 689 mmHg 44%
    07:00 +24°C° 0 mm 1 mps 690 mmHg 39%
    08:00 +26°C° 0 mm 1 mps 690 mmHg 35%
    09:00 +27°C° 0 mm 1 mps 690 mmHg 31%
    10:00 +28°C° 0 mm 1 mps 690 mmHg 28%
    11:00 +29°C° 0 mm 2 mps 691 mmHg 26%
    12:00 +30°C° 0 mm 2 mps 691 mmHg 24%
    13:00 +31°C° 0 mm 2 mps 691 mmHg 23%
    14:00 +31°C° 0 mm 3 mps 691 mmHg 22%
    15:00 +31°C° 0 mm 3 mps 690 mmHg 21%
    16:00 +31°C° 0 mm 3 mps 691 mmHg 25%
    17:00 +30°C° 0 mm 4 mps 691 mmHg 28%
    18:00 +29°C° 0 mm 4 mps 691 mmHg 31%
    19:00 +28°C° 0 mm 4 mps 691 mmHg 37%
    20:00 +26°C° 0 mm 3 mps 691 mmHg 43%
    21:00 +24°C° 0 mm 2 mps 691 mmHg 49%
    22:00 +23°C° 0 mm 2 mps 691 mmHg 51%
    23:00 +23°C° 0 mm 2 mps 691 mmHg 54%

    Tomorrow, 28 May, Monday

    Time Temperature Precipitation Wind Pressure Humidity
    00:00 +21°C° 0 mm 2 mps 691 mmHg 57%
    01:00 +21°C° 0 mm 2 mps 691 mmHg 58%
    02:00 +20°C° 0 mm 2 mps 691 mmHg 59%
    03:00 +21°C° 0 mm 1 mps 690 mmHg 60%
    04:00 +21°C° 0 mm 1 mps 691 mmHg 57%
    05:00 +22°C° 0 mm 1 mps 691 mmHg 55%
    06:00 +22°C° 0 mm 1 mps 691 mmHg 53%
    07:00 +24°C° 0 mm 1 mps 691 mmHg 47%
    08:00 +25°C° 0 mm 1 mps 690 mmHg 42%
    09:00 +26°C° 0 mm 1 mps 690 mmHg 37%
    10:00 +28°C° 0 mm 1 mps 690 mmHg 33%
    11:00 +29°C° 0 mm 1 mps 690 mmHg 30%
    12:00 +30°C° 0 mm 1 mps 690 mmHg 27%
    13:00 +31°C° 0.1 mm 2 mps 689 mmHg 26%
    14:00 +32°C° 0.1 mm 2 mps 689 mmHg 25%
    15:00 +32°C° 0.1 mm 2 mps 688 mmHg 23%
    16:00 +32°C° 0.3 mm 2 mps 688 mmHg 25%
    17:00 +31°C° 0.3 mm 2 mps 688 mmHg 26%
    18:00 +30°C° 0.3 mm 2 mps 688 mmHg 28%
    19:00 +29°C° 0.2 mm 2 mps 688 mmHg 34%
    20:00 +27°C° 0.2 mm 2 mps 688 mmHg 39%
    21:00 +26°C° 0.2 mm 2 mps 688 mmHg 45%
    22:00 +26°C° 0 mm 2 mps 688 mmHg 45%
    23:00 +25°C° 0 mm 1 mps 688 mmHg 46%

    Day after tomorrow, 29 May, Tuesday

    Time Temperature Precipitation Wind Pressure Humidity
    00:00 +25°C° 0 mm 1 mps 688 mmHg 47%
    01:00 +25°C° 0 mm 1 mps 688 mmHg 49%
    02:00 +24°C° 0 mm 1 mps 688 mmHg 50%
    03:00 +23°C° 0 mm 1 mps 687 mmHg 52%
    04:00 +24°C° 0 mm 1 mps 687 mmHg 51%
    05:00 +24°C° 0 mm 1 mps 688 mmHg 49%
    06:00 +24°C° 0 mm 1 mps 688 mmHg 48%
    07:00 +26°C° 0 mm 2 mps 688 mmHg 44%
    08:00 +27°C° 0 mm 2 mps 688 mmHg 40%
    09:00 +28°C° 0 mm 2 mps 688 mmHg 35%
    10:00 +29°C° 0 mm 3 mps 688 mmHg 33%
    11:00 +32°C° 0 mm 4 mps 687 mmHg 30%
    12:00 +33°C° 0 mm 4 mps 687 mmHg 27%
    13:00 +33°C° 0.2 mm 5 mps 687 mmHg 28%
    14:00 +33°C° 0.2 mm 6 mps 687 mmHg 28%
    15:00 +33°C° 0.2 mm 7 mps 687 mmHg 29%
    16:00 +29°C° 1.3 mm 6 mps 687 mmHg 39%
    17:00 +27°C° 1.3 mm 4 mps 687 mmHg 49%
    18:00 +24°C° 1.3 mm 3 mps 686 mmHg 59%
    19:00 +22°C° 2.3 mm 3 mps 687 mmHg 64%
    20:00 +21°C° 2.3 mm 2 mps 687 mmHg 68%
    21:00 +20°C° 2.3 mm 2 mps 688 mmHg 73%
    22:00 +20°C° 0.1 mm 2 mps 688 mmHg 72%
    23:00 +20°C° 0.1 mm 2 mps 688 mmHg 70%

    30 May, Wednesday

    Time Temperature Precipitation Wind Pressure Humidity
    00:00 +21°C° 0.1 mm 1 mps 688 mmHg 69%
    01:00 +20°C° 0 mm 1 mps 687 mmHg 69%
    02:00 +20°C° 0 mm 1 mps 687 mmHg 69%
    03:00 +20°C° 0 mm 1 mps 687 mmHg 70%
    04:00 +20°C° 0 mm 1 mps 687 mmHg 68%
    05:00 +20°C° 0 mm 1 mps 687 mmHg 65%
    06:00 +20°C° 0 mm 1 mps 687 mmHg 63%
    07:00 +21°C° 0 mm 2 mps 688 mmHg 58%
    08:00 +23°C° 0 mm 2 mps 688 mmHg 52%
    09:00 +24°C° 0 mm 2 mps 688 mmHg 47%
    10:00 +26°C° 0 mm 2 mps 688 mmHg 44%
    11:00 +27°C° 0 mm 3 mps 688 mmHg 40%
    12:00 +28°C° 0 mm 3 mps 688 mmHg 37%
    13:00 +29°C° 0.1 mm 3 mps 687 mmHg 35%
    14:00 +30°C° 0.1 mm 3 mps 687 mmHg 34%
    15:00 +32°C° 0.1 mm 4 mps 687 mmHg 32%
    16:00 +30°C° 0.5 mm 4 mps 687 mmHg 35%
    17:00 +29°C° 0.5 mm 3 mps 687 mmHg 37%
    18:00 +28°C° 0.5 mm 3 mps 686 mmHg 40%
    19:00 +27°C° 0.4 mm 3 mps 686 mmHg 45%
    20:00 +26°C° 0.4 mm 2 mps 687 mmHg 50%
    21:00 +25°C° 0.4 mm 2 mps 687 mmHg 55%
    22:00 +24°C° 0.2 mm 2 mps 686 mmHg 56%
    23:00 +23°C° 0.2 mm 2 mps 686 mmHg 58%

    31 May, Thursday

    Time Temperature Precipitation Wind Pressure Humidity
    00:00 +23°C° 0.2 mm 1 mps 686 mmHg 60%
    01:00 +22°C° 0.1 mm 1 mps 685 mmHg 61%
    02:00 +22°C° 0.1 mm 1 mps 685 mmHg 62%
    03:00 +22°C° 0.1 mm 1 mps 685 mmHg 63%
    04:00 +22°C° 0.1 mm 1 mps 684 mmHg 62%
    05:00 +23°C° 0.1 mm 1 mps 684 mmHg 61%
    06:00 +23°C° 0.1 mm 1 mps 684 mmHg 59%
    07:00 +24°C° 0.2 mm 1 mps 684 mmHg 54%
    08:00 +26°C° 0.2 mm 1 mps 684 mmHg 48%
    09:00 +27°C° 0.2 mm 1 mps 684 mmHg 42%
    10:00 +28°C° 0 mm 2 mps 684 mmHg 39%
    11:00 +30°C° 0 mm 2 mps 683 mmHg 35%
    12:00 +31°C° 0 mm 3 mps 683 mmHg 31%
    13:00 +31°C° 0.1 mm 3 mps 683 mmHg 31%
    14:00 +33°C° 0.1 mm 3 mps 683 mmHg 30%
    15:00 +33°C° 0.1 mm 4 mps 682 mmHg 30%
    16:00 +31°C° 0.5 mm 3 mps 682 mmHg 33%
    17:00 +31°C° 0.5 mm 3 mps 682 mmHg 35%
    18:00 +30°C° 0.5 mm 3 mps 682 mmHg 38%
    19:00 +29°C° 0.5 mm 3 mps 683 mmHg 40%
    20:00 +27°C° 0.5 mm 3 mps 683 mmHg 42%
    21:00 +26°C° 0.5 mm 2 mps 684 mmHg 44%
    22:00 +25°C° 0.1 mm 2 mps 683 mmHg 46%
    23:00 +24°C° 0.1 mm 2 mps 683 mmHg 47%

    1 June, Friday

    Time Temperature Precipitation Wind Pressure Humidity
    00:00 +23°C° 0.1 mm 2 mps 683 mmHg 49%
    01:00 +23°C° 0 mm 2 mps 683 mmHg 50%
    02:00 +21°C° 0 mm 2 mps 683 mmHg 50%
    03:00 +21°C° 0 mm 2 mps 683 mmHg 51%
    04:00 +21°C° 0 mm 2 mps 683 mmHg 50%
    05:00 +21°C° 0 mm 2 mps 683 mmHg 49%
    06:00 +23°C° 0 mm 2 mps 683 mmHg 47%
    07:00 +24°C° 0 mm 2 mps 683 mmHg 43%
    08:00 +25°C° 0 mm 2 mps 683 mmHg 39%
    09:00 +27°C° 0 mm 2 mps 683 mmHg 35%
    10:00 +28°C° 0 mm 2 mps 683 mmHg 32%
    11:00 +29°C° 0 mm 2 mps 683 mmHg 29%
    12:00 +30°C° 0 mm 2 mps 683 mmHg 26%
    13:00 +31°C° 0 mm 3 mps 682 mmHg 24%
    14:00 +31°C° 0 mm 3 mps 682 mmHg 23%
    15:00 +33°C° 0 mm 3 mps 682 mmHg 21%
    16:00 +31°C° 0 mm 3 mps 682 mmHg 23%
    17:00 +31°C° 0 mm 3 mps 682 mmHg 25%
    18:00 +30°C° 0 mm 3 mps 682 mmHg 27%
    19:00 +28°C° 0 mm 3 mps 682 mmHg 30%
    20:00 +27°C° 0 mm 3 mps 683 mmHg 32%
    21:00 +25°C° 0 mm 3 mps 683 mmHg 35%
    22:00 +25°C° 0 mm 3 mps 683 mmHg 38%
    23:00 +24°C° 0 mm 2 mps 684 mmHg 40%
    Show more